Regional Weather Roundup
Issued by NWS

Home | Current Version | Previous Version | Graphics & Text | Print | Product List | Glossary On
Versions: 1 2 3 4 5 6 7 8 9 10 11 12 13 14 15 16 17 18 19 20 21 22 23 24 25 26 27 28 29 30 31 32 33 34 35 36 37 38 39 40 41 42 43 44 45 46 47 48 49 50
000
ASUS45 KBOU 250707
RWRCO

WEATHER ROUNDUP FOR COLORADO
NATIONAL WEATHER SERVICE DENVER/BOULDER CO
100 AM MDT MON MAY 25 2015

NOTE: "FAIR" INDICATES FEW OR NO CLOUDS BELOW 12000 FEET WITH NO
SIGNIFICANT WEATHER AND/OR OBSTRUCTIONS TO VISIBILITY.

COZ001>005-013-030-031-250800-
...NORTHWEST COLORADO...

CITY           SKY/WX    TMP DP  RH WIND       PRES   REMARKS
CRAIG          CLOUDY    43  40  89 CALM      29.97S
HAYDEN         CLOUDY    43  36  75 CALM      29.98S
MEEKER         CLOUDY    42  39  89 CALM      29.98S
MOUNT WERNER   NOT AVBL
STEAMBOAT SPGS CLOUDY    38  37  94 E5        29.98S
WALDEN         MOCLDY    34  32  93 CALM      29.98S
$$

COZ006>008-011-250800-
...WEST CENTRAL VALLEYS...

CITY           SKY/WX    TMP DP  RH WIND       PRES   REMARKS
GRAND JUNCTION RAIN      47  46  97 CALM      29.96R FOG
MONTROSE       CLOUDY    47  44  90 CALM      29.97S
EAGLE          MOCLDY    41  37  87 CALM      30.00S
RIFLE          CLOUDY    45  40  82 E6        29.97S
DELTA          CLOUDY    51  47  84 MISG      29.96R
NUCLA          CLOUDY    50  37  62 E8        29.98S
$$

COZ017>023-064>068-250800-
...SOUTHWEST COLORADO...

CITY           SKY/WX    TMP DP  RH WIND       PRES   REMARKS
DURANGO        MOCLDY    40  36  86 VRB6      30.00R
CORTEZ         MOCLDY    44  41  89 NE3       29.98S
PAGOSA SPRINGS PTCLDY    38  38 100 CALM      30.04S
TELLURIDE      CLOUDY    38  35  90 SE3       30.08S
WOLF CREEK PAS NOT AVBL
$$

COZ009-010-012-014-032>034-037-058>063-250800-
...CENTRAL COLORADO...

CITY           SKY/WX    TMP DP  RH WIND       PRES   REMARKS
ASPEN          LGT SNOW  34  33  96 CALM      30.00S FOG
BUENA VISTA    MOCLDY    42  34  74 NW15      29.95S
COPPER MTN     LGT SNOW  30  27  86 W15       30.07S WCI  19
BERTHOUD PASS  HVY SNOW  23  14  68 N8        30.08S VSB 1/4 WCI  14
COTTONWOOD PAS CLOUDY    37  32  81 NW6       30.01F
GUNNISON       PTCLDY    41  34  75 CALM      30.02S
KREMMLING      DRIZZLE   37  36  93 SE3       30.00S
LEADVILLE      LGT SNOW  31  31 100 CALM      30.01S VSB 3/4
SALIDA         MOCLDY    47  34  61 SW10G20   30.02S
SUNLIGHT       FOG       32  32 100 CALM      30.10S VSB 1/4
WILKERSON PASS LGT SNOW  32  30  93 MISG      30.07F VSB 1
$$

COZ069>075-250800-
...SAN LUIS VALLEY/SANGRE DE CRISTO MOUNTAINS...

CITY           SKY/WX    TMP DP  RH WIND       PRES   REMARKS
ALAMOSA        MOCLDY    38  36  92 CALM      29.99R
LA VETA PASS   CLOUDY   N/A N/A N/A MISG      30.06S
SAGUACHE       CLOUDY    43  36  75 N5        30.00S
$$

COZ035-036-038>040-250800-
...NORTHERN COLORADO FRONT RANGE...

CITY           SKY/WX    TMP DP  RH WIND       PRES   REMARKS
DENVER INTL AP MOCLDY    45  42  89 W7        29.88F
DMNS CITY PARK   N/A     47  41  79 S3        29.89F
AURORA         MOCLDY    44  42  93 W5        29.90F
FRONT RANGE AP MOCLDY    46  45  93 CALM      29.89F
ERIE MUNI ARPT MOCLDY    46  44  92 CALM      29.88F
BOULDER MUN AP MOCLDY    46  41  81 S3        29.87F
CENTENNIAL     MOCLDY    46  40  79 W6        29.90F
BROOMFIELD     MOCLDY    46  41  81 CALM      29.90F
FORT COLLINS   MOCLDY    48  43  81 CALM      29.89S
LONGMONT       MOCLDY    47  44  88 CALM      29.89F
$$

COZ041-046-047-076>085-087-088-250800-
...PIKES PEAK/PALMER DIVIDE AND SOUTHERN FOOTHILLS...

CITY           SKY/WX    TMP DP  RH WIND       PRES   REMARKS
COLO. SPRINGS  MOCLDY    48  40  73 N10       29.91F
A. F. ACADEMY  MOCLDY    41  40  94 N10       29.91F
ELLICOTT       NOT AVBL
FALCON         MOCLDY    44  38  81 NW7       29.93F
FORT CARSON    PTCLDY    45  41  86 N7        29.88F
LIMON          PTCLDY    42  40  92 W6        29.87F
MONUMENT HILL  NOT AVBL
TRINIDAD       MOCLDY    45  40  82 W3        29.89F
$$

COZ042>045-048>051-090-091-250800-
...NORTHEAST COLORADO...

CITY           SKY/WX    TMP DP  RH WIND       PRES   REMARKS
GREELEY ARPT   CLOUDY    48  45  87 W3        29.87S
AKRON          CLOUDY    45  45 100 W9        29.83F
BURLINGTON     CLOUDY    51  46  83 S15       29.82F
WRAY           CLOUDY   N/A N/A N/A SW6       29.81S
STERLING       CLOUDY    50  48  93 N3        29.81F
HOLYOKE        NOT AVBL
FORT MORGAN    CLOUDY    50  45  83 W5        29.85S
$$

COZ086-089-092>099-250800-
...SOUTHEAST COLORADO...

CITY           SKY/WX    TMP DP  RH WIND       PRES   REMARKS
PUEBLO         MOCLDY    49  45  86 CALM      29.86R
LA JUNTA       MOCLDY    50  47  89 S6        29.84R
LAMAR          PTCLDY    47  46  97 SW5       29.80F
SPRINGFIELD      N/A     44  41  89 SW3       29.82S
$$



USA.gov is the U.S. government's official web portal to all federal, state and local government web resources and services.